Location: Stony Creek
(40.9500°S, 175.8500°E)
Time: 09:10:32
(UTC+00:00)

Cosmos 1818 - Pass Details

Date: 15 May 2026
Orbit: 773 x 798 km, 65.0° (Epoch: 9 June)

Event Time Altitude Azimuth Distance (km) Brightness Sun altitude
Exits shadow 18:20:26 11° 228° (SW) 2,267 5.4 -11.0°
Maximum altitude 18:25:10 39° 294° (WNW) 1,167 4.1 -10.1°
Drops below altitude 10° 18:30:06 10° 1° (N) 2,326 6.2 -9.2°
Sets 18:32:37 0° 9° (N) 3,249 7.1 -8.8°
